Location: Bonningues
(50.7927°N, 2.0150°E)
Time: 15:25:57
(UTC+00:00)

Cosmos 192 - Pass Details

Date: 08 August 2020
Orbit: 701 x 713 km, 74.0° (Epoch: 19 September)

Event Time Altitude Azimuth Distance (km) Brightness Sun altitude
Rises 21:12:35 0° 334° (NNW) 3,102 9.3 -14.3°
Reaches altitude 10° 21:14:55 10° 333° (NNW) 2,180 8.2 -14.5°
Maximum altitude 21:19:49 77° 248° (WSW) 729 4.4 -15.0°
Enters shadow 21:22:58 22° 166° (SSE) 1,505 5.5 -15.3°
